RYR47ZK LFBT-EPKK

Flight info

Callsign RYR47ZK
Flight time N/A
Altitude 37000
Route USAKU DCT TOU DCT GAI DCT MEN DCT NINUN DCT LATAM DCT ROMAM DCT ETIDO DCT NEDRU DCT RILIP DCT EMMEF DCT LAPRI DCT MOGBO DCT MALUG DCT INGID DCT LEDVA DCT NETIR
Aircraft B738/M-SDE2E3FGHIRWXY/LB1

Departure

Time 2026-04-27 19:21
Airport Tarbes-Lourdes-Pyrénées Airport (LFBT)

Arrival

Time N/A
Airport Kraków John Paul II International Airport (EPKK)
Time Latitude Longitude Altitude Speed Heading
2026-04-27 18:53 43.18474 0.00308 1200 ft 0 kts 37°
2026-04-27 19:12 43.18466 0.00300 1201 ft 3 kts 35°
2026-04-27 19:12 43.18446 0.00283 1202 ft 3 kts 24°
2026-04-27 19:12 43.18424 0.00273 1202 ft 3 kts 355°
2026-04-27 19:12 43.18409 0.00280 1203 ft 3 kts 285°
2026-04-27 19:13 43.18409 0.00284 1203 ft 1 kts 282°
2026-04-27 19:16 43.18409 0.00278 1203 ft 2 kts 282°
2026-04-27 19:16 43.18427 0.00179 1206 ft 13 kts 288°
2026-04-27 19:16 43.18362 0.00075 1208 ft 18 kts 208°
2026-04-27 19:17 43.18238 -0.00020 1204 ft 22 kts 209°
2026-04-27 19:17 43.18092 -0.00132 1209 ft 25 kts 208°
2026-04-27 19:17 43.17945 -0.00243 1214 ft 23 kts 209°
2026-04-27 19:17 43.17806 -0.00350 1218 ft 23 kts 209°
2026-04-27 19:18 43.17652 -0.00464 1222 ft 27 kts 206°
2026-04-27 19:18 43.17487 -0.00560 1227 ft 25 kts 200°
2026-04-27 19:18 43.17329 -0.00640 1233 ft 23 kts 200°
2026-04-27 19:18 43.17180 -0.00716 1242 ft 23 kts 200°
2026-04-27 19:19 43.17081 -0.00772 1250 ft 11 kts 221°
2026-04-27 19:19 43.17075 -0.00870 1248 ft 11 kts 289°
2026-04-27 19:19 43.17099 -0.00968 1253 ft 11 kts 289°
2026-04-27 19:19 43.17158 -0.00993 1249 ft 11 kts 20°
2026-04-27 19:20 43.17257 -0.00942 1239 ft 24 kts 20°
2026-04-27 19:20 43.17649 -0.00743 1223 ft 96 kts 20°
2026-04-27 19:20 43.18477 -0.00326 1201 ft 156 kts 20°
2026-04-27 19:20 43.19540 0.00198 1743 ft 157 kts 20°
2026-04-27 19:21 43.20548 0.00680 2503 ft 152 kts 19°
2026-04-27 19:21 43.21611 0.01192 2918 ft 174 kts 21°
2026-04-27 19:21 43.22849 0.01833 3216 ft 206 kts 20°
2026-04-27 19:21 43.24248 0.02551 3598 ft 221 kts 22°
2026-04-27 19:22 43.25717 0.03420 3888 ft 243 kts 25°
2026-04-27 19:22 43.27329 0.04446 4255 ft 264 kts 25°
2026-04-27 19:22 43.29014 0.05518 5036 ft 269 kts 25°
2026-04-27 19:22 43.30722 0.06600 5888 ft 271 kts 25°
2026-04-27 19:23 43.32448 0.07693 6711 ft 274 kts 25°
2026-04-27 19:23 43.34181 0.08832 7456 ft 279 kts 31°
2026-04-27 19:23 43.35506 0.10773 8164 ft 284 kts 64°
2026-04-27 19:23 43.36246 0.13298 8978 ft 287 kts 70°
2026-04-27 19:24 43.36924 0.15913 9690 ft 293 kts 70°
2026-04-27 19:24 43.37607 0.18576 10386 ft 300 kts 70°
2026-04-27 19:24 43.38337 0.21374 10601 ft 323 kts 70°
2026-04-27 19:24 43.39128 0.24349 11000 ft 338 kts 69°
2026-04-27 19:25 43.39954 0.27407 11632 ft 344 kts 69°
2026-04-27 19:25 43.40797 0.30502 12377 ft 347 kts 69°
2026-04-27 19:25 43.41653 0.33626 13116 ft 352 kts 69°
2026-04-27 19:25 43.42526 0.36797 13868 ft 357 kts 69°
2026-04-27 19:26 43.43411 0.40007 14568 ft 360 kts 69°
2026-04-27 19:26 43.44304 0.43246 15268 ft 365 kts 69°
2026-04-27 19:26 43.45210 0.46532 15959 ft 370 kts 69°
2026-04-27 19:26 43.45816 0.48733 16414 ft 373 kts 69°
2026-04-27 19:27 43.46741 0.52087 17101 ft 378 kts 69°
2026-04-27 19:27 43.47682 0.55491 17784 ft 382 kts 69°
2026-04-27 19:27 43.48632 0.58934 18451 ft 387 kts 69°
2026-04-27 19:27 43.49590 0.62423 19041 ft 391 kts 69°
2026-04-27 19:28 43.50554 0.65945 19643 ft 395 kts 69°
2026-04-27 19:28 43.51526 0.69503 20236 ft 399 kts 69°
2026-04-27 19:28 43.52506 0.73098 20831 ft 403 kts 69°
2026-04-27 19:28 43.53494 0.76725 21404 ft 407 kts 69°
2026-04-27 19:29 43.54490 0.80388 21993 ft 410 kts 70°
2026-04-27 19:29 43.55493 0.84082 22581 ft 413 kts 70°
2026-04-27 19:29 43.56504 0.87814 23118 ft 418 kts 70°
2026-04-27 19:29 43.57524 0.91581 23653 ft 421 kts 70°
2026-04-27 19:30 43.58550 0.95379 24120 ft 425 kts 70°
2026-04-27 19:30 43.59584 0.99213 24591 ft 427 kts 70°
2026-04-27 19:30 43.60621 1.03063 25074 ft 429 kts 70°
2026-04-27 19:30 43.61663 1.06936 25530 ft 432 kts 70°
2026-04-27 19:31 43.62708 1.10830 25986 ft 434 kts 70°
2026-04-27 19:31 43.63758 1.14751 26423 ft 437 kts 70°
2026-04-27 19:31 43.64812 1.18695 26863 ft 439 kts 70°
2026-04-27 19:31 43.65857 1.22606 27274 ft 442 kts 70°
2026-04-27 19:32 43.66926 1.26607 27703 ft 444 kts 70°
2026-04-27 19:32 43.68094 1.30566 28099 ft 447 kts 63°
2026-04-27 19:32 43.69686 1.34260 28490 ft 450 kts 54°
2026-04-27 19:32 43.71554 1.37748 28901 ft 452 kts 52°
2026-04-27 19:33 43.73460 1.41214 29280 ft 454 kts 52°
2026-04-27 19:33 43.74754 1.43565 29526 ft 456 kts 52°
2026-04-27 19:33 43.77292 1.48223 30024 ft 459 kts 53°
2026-04-27 19:33 43.79203 1.51775 30345 ft 461 kts 53°
2026-04-27 19:34 43.81113 1.55354 30641 ft 463 kts 53°
2026-04-27 19:34 43.83026 1.58958 30945 ft 466 kts 53°
2026-04-27 19:34 43.84949 1.62589 31162 ft 469 kts 53°
2026-04-27 19:34 43.86883 1.66245 31466 ft 471 kts 53°
2026-04-27 19:35 43.88814 1.69901 31884 ft 469 kts 53°
2026-04-27 19:35 43.90735 1.73542 32331 ft 467 kts 53°
2026-04-27 19:35 43.92650 1.77172 32718 ft 466 kts 53°
2026-04-27 19:35 43.94564 1.80803 33043 ft 466 kts 53°
2026-04-27 19:36 43.96470 1.84449 33408 ft 466 kts 54°
2026-04-27 19:36 43.98327 1.88136 33786 ft 466 kts 54°
2026-04-27 19:36 44.00160 1.91834 34154 ft 465 kts 54°
2026-04-27 19:36 44.01984 1.95531 34499 ft 463 kts 54°
2026-04-27 19:37 44.03808 1.99224 34753 ft 464 kts 54°
2026-04-27 19:37 44.05638 2.02924 35022 ft 464 kts 53°
2026-04-27 19:37 44.07468 2.06619 35343 ft 463 kts 53°
2026-04-27 19:37 44.09266 2.10251 35674 ft 461 kts 53°
2026-04-27 19:38 44.11084 2.13921 35972 ft 461 kts 53°
2026-04-27 19:38 44.12900 2.17593 36232 ft 461 kts 53°
2026-04-27 19:38 44.14714 2.21263 36512 ft 460 kts 53°
2026-04-27 19:38 44.16525 2.24933 36818 ft 459 kts 53°
2026-04-27 19:39 44.18327 2.28591 37093 ft 458 kts 53°
2026-04-27 19:39 44.21961 2.35976 37121 ft 464 kts 53°
2026-04-27 19:40 44.25601 2.43398 37110 ft 462 kts 53°
2026-04-27 19:40 44.29194 2.50746 37119 ft 457 kts 53°
2026-04-27 19:41 44.32765 2.58063 37112 ft 455 kts 53°
2026-04-27 19:41 44.36326 2.65377 37110 ft 455 kts 53°
2026-04-27 19:42 44.39878 2.72691 37126 ft 455 kts 53°
2026-04-27 19:42 44.43433 2.80031 37121 ft 456 kts 53°
2026-04-27 19:43 44.46993 2.87400 37128 ft 458 kts 53°
2026-04-27 19:43 44.50561 2.94805 37130 ft 459 kts 53°